FENGYUN 1C DEB, 31559

Orbit data source: Space-Track

FENGYUN 1C DEB, 31559 is space debris in SSO originally from a launch on Mon, 10 May 1999 UTC launched from the Taiyaun Space Center, China (TSC). Fengyun 1C debris stems from the Chinese weather satellite Fengyun-1C, which was intentionally destroyed by a Chinese anti-satellite missile in 2007. This event dramatically increased the amount of space debris, with thousands of trackable fragments posing hazards to satellites and human spaceflight. The Fengyun 1C debris cloud has become a focal point in discussions about space sustainability and the need for international regulations to prevent the creation of new debris.

Loading next visibility...
Identifier
31559, 1999-025BZA
Orbit
SSO
Country
Flag of CNCN / PRC
Related business
Manufacturer
Unknown
Mission
Spacecraft
Bus & Motor
Unknown
Mass
Unknown
Launch date (UTC)
1999-05-10 (27 years ago)
Launch vehicle
Unknown
Launch site
Taiyaun Space Center, China (TSC)
Object type
Payload
Rocket body
Debris
Shape & HBR
Unknown shape, 0.1 m
Radar Cross Section
Medium (>0.1 m² and <1 m²)

Expand to show TLE details & history
Last TLE update: 1 day ago

TLE from 1 day ago
0 FENGYUN 1C DEB
1 31559U 99025BZA 26264.17673672  .00003209  00000-0  56718-3 0  9991
2 31559  98.8837 245.8719 0053865  43.0756  15.9372 14.67262825 16913
Epoch: 2026-09-21T04:14Z
TLE epoch observation values (Epoch: 2026-09-21T04:14:30.052Z)
Latitude
58.15135°
Longitude
167.69395°
Altitude
643.106 km
Speed
7.562 km/s
True Right ascension
15h 25m 31s
True Declination
57° 59' 40"
Sunlit
Object was in daylight at epoch
Visualization orbit readout
Latitude
Unknown
Longitude
Unknown
Altitude
Unknown
Speed
Unknown
Apparent Right ascension
Unknown
Apparent Declination
Unknown
Sunlit
N/A
Visualization observer readout
Local Sidereal Time
06:11:11
Azimuth
Unknown
Elevation
Unknown
Doppler factor
Unknown
Orbital elements
Apogee altitude
704.872 km
Perigee altitude
628.976 km
Semi-major axis
7,045.061 km
Eccentricity
0.00539
Inclination
98.8837°
RAAN
245.8719°
Arg. of periapsis
43.0756°
True anomaly
16.10779°
Mean anomaly
15.9372°
Eccentric anomaly
16.02238°
Mean motion
3.67042 °/min
Orbital period
98.08 mins
BSTAR
0.00056718
Loading maneuver chart data...
Computing Atmospheric mass density...

Documentation

Showing up to 5 results
|